{"data":{"norad_id":65800,"epoch":"2026-05-25T02:27:20.174976Z","epoch_age_seconds":69367,"freshness":"FRESH","line1":"1 65800U 25218K   26145.10231684  .00003227  00000+0  22753-3 0  9995","line2":"2 65800  97.4539   7.8328 0001764  85.0975 275.0454 15.05660542 36468","mean_motion":15.05660542,"eccentricity":0.0001764,"inclination_deg":97.4539,"raan_deg":7.8328,"arg_perigee_deg":85.0975,"mean_anomaly_deg":275.0454,"bstar":0.00022753,"rev_number":3646,"period_min":95.639087286383,"perigee_km":548.25678625769,"apogee_km":550.70084911817,"semimajor_km":6927.6158176879,"source":"CELESTRAK","updated_at":"2026-05-25T13:38:20.937790Z"}}